Regional Weather Roundup
Issued by NWS

Home | Current Version | Previous Version | Graphics & Text | Print | Product List | Glossary On
Versions: 1 2 3 4 5 6 7 8 9 10 11 12 13 14 15 16 17 18 19 20 21 22 23 24 25 26 27 28 29 30 31 32 33 34 35 36 37 38 39 40 41 42 43 44 45 46 47 48 49 50
631
ASUS43 KMPX 251810
RWRMN
WEATHER ROUNDUP FOR MINNESOTA
NATIONAL WEATHER SERVICE TWIN CITIES/CHANHASSEN MN
1200 PM CST SAT FEB 25 2017


NOTE: "FAIR" INDICATES FEW OR NO CLOUDS BELOW 12,000 FEET WITH NO
SIGNIFICANT WEATHER AND/OR OBSTRUCTIONS TO VISIBILITY. N/A MEANS
CURRENT SKY AND/OR WEATHER CONDITIONS ARE NOT AVAILABLE.

MNZ060>063-068>070-251900-
   Twin Cities Metro

CITY           SKY/WX    TMP DP  RH WIND       PRES   REMARKS
TWIN CITIES    SUNNY     28   5  37 NW15G21   29.94S WCI  16
6HR MIN TEMP:  14; 6HR MAX TEMP:  28;

ST PAUL        SUNNY     28   5  37 NW9       29.95S WCI  19
CRYSTAL        MOSUNNY   27   5  39 W10G21    29.93F WCI  17
BLAINE         MOSUNNY   28   7  40 NW14      29.92S WCI  17
LAKEVILLE      SUNNY     27  10  50 CALM      29.94S
EDEN PRAIRIE   SUNNY     29   7  39 NW9       29.93F WCI  20
6HR MIN TEMP:  15; 6HR MAX TEMP:  29;

SOUTH ST PAUL  SUNNY     28   4  35 NW13G20   29.94S WCI  18
LAKE ELMO      FAIR      28   9  43 W14       29.93S WCI  17
$$
MNZ001>005-007-008-013>017-022>024-027-028-251900-
   Northwest Minnesota

CITY           SKY/WX    TMP DP  RH WIND       PRES   REMARKS
BEMIDJI        MOSUNNY   24  14  66 SW5       29.79F WCI  18
HALLOCK        CLOUDY    23  19  86 W8        29.80F WCI  14
ROSEAU         CLOUDY    19  14  79 S6        29.78F WCI  11
WARROAD        FLURRIES  19  14  79 SW8       29.78F WCI   9
THIEF RVR FALL   N/A    N/A N/A N/A MISG        N/A
CROOKSTON      CLOUDY    28  21  74 W9        29.83S WCI  20
FOSSTON        MOSUNNY   27  19  74 SW14      29.80F WCI  15
DETROIT LAKES  PTSUNNY   28  21  74 SW14      29.84F WCI  17
MOORHEAD       CLOUDY    28  19  69 SW12      29.86F WCI  18
PARK RAPIDS    CLOUDY    24  14  65 SW9       29.82F WCI  14
MAHNOMEN       MOCLDY    27  19  70 SW15      29.81F WCI  16
$$
MNZ006-009>011-018-025>026-251900-
   North Central Minnesota

CITY           SKY/WX    TMP DP  RH WIND       PRES   REMARKS
BAUDETTE       LGT SNOW  17  11  77 S6        29.78F WCI   9
FLAG ISLAND    FLURRIES  14  10  85 S15       29.77F WCI  -1
INTL FALLS     LGT SNOW  16   7  67 W7        29.79F WCI   6
6HR MIN TEMP:   1; 6HR MAX TEMP:  17; 6HR PCP: TRACE;

WASKISH        LGT SNOW  18  14  86 SE5       29.80F WCI  11
BIG FORK       FLURRIES  21   7  53 CALM      29.80F
LONGVILLE      SUNNY     21   9  58 SW3       29.84F
GRAND RAPIDS   FLURRIES  23   9  55 VRB3      29.84F
CRANE LAKE     SUNNY     18   0  45 NW8       29.81F WCI   7
ORR            CLOUDY    18   0  45 NW5       29.77F WCI  11
COOK           PTSUNNY   18   1  49 W10       29.79F WCI   6
WALKER         CLOUDY    23  13  66 SW10      29.81F WCI  13
$$
MNZ012-019>021-037-251900-
   Northeast Minnesota

CITY           SKY/WX    TMP DP  RH WIND       PRES   REMARKS
DULUTH         SUNNY     18   6  59 NW15      29.79S WCI   4
6HR MIN TEMP:   5; 6HR MAX TEMP:  18;

ELY            SUNNY     18   0  45 W12G18    29.75S WCI   5
HIBBING        CLOUDY    16   3  56 NW9       29.80F WCI   4
EVELETH        MOSUNNY   18  -5  34 W12       29.80F WCI   6
DULUTH HARBOR  SUNNY     21   7  53 W13       29.86F WCI   9
TWO HARBORS    SUNNY     23   9  54 NW10G20   29.77S WCI  12
SILVER BAY     SUNNY     23   3  42 NW7       29.74S WCI  15
GRAND MARAIS     N/A     24   7  48 NW8G16    29.73R WCI  15
G MARAIS ARPRT SUNNY     16   0  48 W17G23    29.63R WCI   0
$$
MNZ029>031-032-039>041-046>048-054>057-064-251900-
   West Central Minnesota

CITY           SKY/WX    TMP DP  RH WIND       PRES   REMARKS
FERGUS FALLS   PTSUNNY   28  19  69 SW13      29.92F WCI  18
WHEATON        SUNNY     34  18  51 SW10      29.91F WCI  26
MORRIS         CLOUDY    30  19  64 SW14      29.90F WCI  20
ALEXANDRIA     PTSUNNY   28  15  58 SW9       29.88F WCI  19
ELBOW LAKE     PTSUNNY   28  18  66 SW14G20   29.89F HAZE    WCI  17
WADENA         CLOUDY    27  18  69 W9        29.84F WCI  17
GLENWOOD       PTSUNNY   27  16  63 SW12      29.89F WCI  16
APPLETON       SUNNY     34  18  51 SW10G16   29.92F WCI  26
BENSON         CLOUDY    30  12  47 W9        29.94F WCI  22
ORTONVILLE     PTSUNNY   34  18  51 SW6       29.90F WCI  29
MADISON        SUNNY     37  19  48 W14       29.92F
WILLMAR        CLOUDY    28  19  69 W12       29.94F WCI  18
$$
MNZ033>034-036-042>043-049>051-058-059-251900-
   Central Minnesota

CITY           SKY/WX    TMP DP  RH WIND       PRES   REMARKS
ST CLOUD       MOSUNNY   28  14  55 NW12G22   29.91F WCI  18
6HR MIN TEMP:  12; 6HR MAX TEMP:  28;

SAUK CENTRE    FAIR      28  16  60 SW12G17   29.90F WCI  18
PAYNESVILLE    MOSUNNY   29  17  60 W12       29.92F WCI  19
AITKIN         MOSUNNY   25   9  50 W7        29.84F WCI  17
PINE RIVER     FLURRIES  21  14  73 SW8       29.88F WCI  12
BRAINERD       PTSUNNY   23  12  62 W9        29.87F WCI  13
STAPLES        CLOUDY    25  14  63 SW9       29.86F WCI  15
LONG PRAIRIE   FAIR      28  14  54 SW9       29.89F WCI  20
LITTLE FALLS   CLOUDY    27  12  54 W9        29.89F WCI  17
LITCHFIELD     MOSUNNY   28  16  59 W8        29.93F WCI  20
BUFFALO        SUNNY     28  12  50 W10       29.94F WCI  19
MAPLE LAKE     PTSUNNY   30  15  53 NW7       29.93F WCI  23
HUTCHINSON     MOSUNNY   29  19  64 W10       29.94F WCI  20
$$
MNZ037-044-045-052-053-251900-
   East Central Minnesota

CITY           SKY/WX    TMP DP  RH WIND       PRES   REMARKS
PRINCETON      MOSUNNY   28  10  47 NW8       29.91F WCI  20
MORA           SUNNY     27   9  46 NW14G20   29.91S WCI  15
CAMBRIDGE      SUNNY     28  10  47 W12       29.89F WCI  18
RUSH CITY      SUNNY     25   5  42 W8G18     29.91S WCI  16
MOOSE LAKE     CLOUDY    23   7  50 W7        29.85F WCI  15
HINCKLEY       FAIR      27   9  46 NW9       29.88F WCI  17
CLOQUET        CLOUDY    19   5  53 W12       29.82F WCI   7
MCGREGOR       CLOUDY    23   9  54 W8        29.86F WCI  14
$$
MNZ071>073-080-081-089-090-097-098-251900-
   Southwest Minnesota

CITY           SKY/WX    TMP DP  RH WIND       PRES   REMARKS
MONTEVIDEO     SUNNY     32  19  59 W9        29.95F WCI  24
GRANITE FALLS  SUNNY     32  21  62 W7        29.97F WCI  26
CANBY          SUNNY     34  17  51 SW16G23   29.94F WCI  23
MARSHALL       PTSUNNY   35  15  44 W14G20    29.95F WCI  26
REDWOOD FALLS  SUNNY     30  13  49 W12       29.96F WCI  20
OLIVIA         MOSUNNY   30  18  59 W8        29.94F WCI  23
PIPESTONE      CLOUDY    28  16  59 W12       29.95F WCI  18
WINDOM         SUNNY     27  18  69 SW9       29.97F WCI  17
WORTHINGTON    CLOUDY    24  17  74 SW12      29.98F WCI  13
JACKSON        SUNNY     23  14  68 W9        29.98F WCI  13
TRACY          MOSUNNY   33  18  54 W10       29.96F WCI  25
SLAYTON        MOSUNNY   28  20  72 W15       29.96F WCI  16
$$
MNZ065>067-074>077-082>085-091>093-251900-
   South Central Minnesota

CITY           SKY/WX    TMP DP  RH WIND       PRES   REMARKS
MANKATO          N/A     27  14  58 NW10      29.97F WCI  17
NEW ULM        SUNNY     28  12  50 W10       29.97F WCI  19
ST JAMES       SUNNY     27  16  63 CALM      30.00S
FAIRMONT       SUNNY     24  13  62 W10       30.01S WCI  14
GLENCOE        MOSUNNY   30  18  62 W13       29.94F WCI  20
FARIBAULT      SUNNY     27   9  46 W10       29.96S WCI  17
OWATONNA       SUNNY     23   9  54 W9        29.95S WCI  13
WASECA         SUNNY     23  12  63 W9        29.98S WCI  13
ALBERT LEA     SUNNY     21  10  63 NW9       29.97S WCI  11
$$
MNZ078>079-086>088-094>096-251900-
   Southeast Minnesota

CITY           SKY/WX    TMP DP  RH WIND       PRES   REMARKS
ROCHESTER      SUNNY     19   8  62 NW17      29.93S WCI   4
6HR MIN TEMP:   7; 6HR MAX TEMP:  19;

RED WING       SUNNY     25   3  39 NW8       29.94S WCI  16
STANTON        SUNNY     26   9  48 NW10      29.94S WCI  16
WINONA         SUNNY     23  10  58 W9        29.95R WCI  13
AUSTIN         SUNNY     19   9  63 W15       29.96S WCI   5
PRESTON        SUNNY     18   7  60 NW16G22   29.93S WCI   4
$$
ABBREVIATIONS USED IN REMARKS
   TC - TEMPERATURES IN CELSIUS
  WCI - WIND CHILL INDEX
   HX - HEAT INDEX
  VSB - VISIBILITY
$$




USA.gov is the U.S. government's official web portal to all federal, state and local government web resources and services.